Time,TemperatureF,DewpointF,PressureIn,WindDirection,WindDirectionDegrees,WindSpeedMPH,WindSpeedGustMPH,Humidity,HourlyPrecipIn,Conditions,Clouds,dailyrainin,SoftwareType,DateUTC
2013-03-30 00:00:00,24.0,13.0,-100.00,WNW,292,11.0,22.0,63,-99.99,,,-99.99,,2013-03-30 06:00:00,
2013-03-30 00:42:00,24.0,13.0,-100.00,WNW,292,11.0,22.0,63,-99.99,,,-99.99,,2013-03-30 06:42:00,
2013-03-30 00:52:00,24.0,13.0,-100.00,WNW,292,11.0,22.0,63,-99.99,,,-99.99,,2013-03-30 06:52:00,
2013-03-30 01:00:00,24.0,13.0,-100.00,West,274,9.0,19.0,63,-99.99,,,-99.99,,2013-03-30 07:00:00,
2013-03-30 01:42:00,24.0,13.0,-100.00,West,274,9.0,19.0,63,-99.99,,,-99.99,,2013-03-30 07:42:00,
2013-03-30 01:52:00,24.0,13.0,-100.00,West,274,9.0,19.0,63,-99.99,,,-99.99,,2013-03-30 07:52:00,
2013-03-30 02:00:00,24.0,14.0,-100.00,NW,304,13.0,24.0,65,-99.99,,,-99.99,,2013-03-30 08:00:00,
2013-03-30 02:42:00,24.0,14.0,-100.00,NW,304,13.0,24.0,65,-99.99,,,-99.99,,2013-03-30 08:42:00,
2013-03-30 02:53:00,24.0,14.0,-100.00,NW,304,13.0,24.0,65,-99.99,,,-99.99,,2013-03-30 08:53:00,
2013-03-30 03:00:00,23.0,14.0,-100.00,WNW,300,10.0,26.0,67,-99.99,,,-99.99,,2013-03-30 09:00:00,
2013-03-30 03:43:00,23.0,14.0,-100.00,WNW,300,10.0,26.0,67,-99.99,,,-99.99,,2013-03-30 09:43:00,
2013-03-30 03:53:00,23.0,14.0,-100.00,WNW,300,10.0,26.0,67,-99.99,,,-99.99,,2013-03-30 09:53:00,
2013-03-30 04:00:00,23.0,15.0,-100.00,NW,308,14.0,23.0,70,-99.99,,,-99.99,,2013-03-30 10:00:00,
2013-03-30 04:42:00,23.0,15.0,-100.00,NW,308,14.0,23.0,70,-99.99,,,-99.99,,2013-03-30 10:42:00,
2013-03-30 04:52:00,23.0,15.0,-100.00,NW,308,14.0,23.0,70,-99.99,,,-99.99,,2013-03-30 10:52:00,
2013-03-30 05:00:00,23.0,16.0,-100.00,WNW,302,14.0,24.0,74,-99.99,,,-99.99,,2013-03-30 11:00:00,
2013-03-30 05:43:00,23.0,16.0,-100.00,WNW,302,14.0,24.0,74,-99.99,,,-99.99,,2013-03-30 11:43:00,
2013-03-30 05:53:00,23.0,16.0,-100.00,WNW,302,14.0,24.0,74,-99.99,,,-99.99,,2013-03-30 11:53:00,
2013-03-30 06:00:00,22.0,16.0,-100.00,WNW,301,14.0,28.0,76,-99.99,,,-99.99,,2013-03-30 12:00:00,
2013-03-30 06:42:00,22.0,16.0,-100.00,WNW,301,14.0,28.0,76,-99.99,,,-99.99,,2013-03-30 12:42:00,
2013-03-30 06:53:00,22.0,16.0,-100.00,WNW,301,14.0,28.0,76,-99.99,,,-99.99,,2013-03-30 12:53:00,
2013-03-30 07:00:00,22.0,17.0,-100.00,NW,321,15.0,30.0,78,-99.99,,,-99.99,,2013-03-30 13:00:00,
2013-03-30 07:43:00,22.0,17.0,-100.00,NW,321,15.0,30.0,78,-99.99,,,-99.99,,2013-03-30 13:43:00,
2013-03-30 07:52:00,22.0,17.0,-100.00,NW,321,15.0,30.0,78,-99.99,,,-99.99,,2013-03-30 13:52:00,
2013-03-30 08:00:00,22.0,18.0,-100.00,NW,313,11.0,30.0,85,-99.99,,,-99.99,,2013-03-30 14:00:00,
2013-03-30 08:42:00,22.0,18.0,-100.00,NW,313,11.0,30.0,85,-99.99,,,-99.99,,2013-03-30 14:42:00,
2013-03-30 08:52:00,22.0,18.0,-100.00,NW,313,11.0,30.0,85,-99.99,,,-99.99,,2013-03-30 14:52:00,
2013-03-30 09:00:00,23.0,17.0,-100.00,NW,310,9.0,19.0,78,-99.99,,,-99.99,,2013-03-30 15:00:00,
2013-03-30 09:43:00,23.0,17.0,-100.00,NW,310,9.0,19.0,78,-99.99,,,-99.99,,2013-03-30 15:43:00,
2013-03-30 09:53:00,23.0,17.0,-100.00,NW,310,9.0,19.0,78,-99.99,,,-99.99,,2013-03-30 15:53:00,
2013-03-30 10:00:00,23.0,17.0,-100.00,NW,308,12.0,23.0,77,-99.99,,,-99.99,,2013-03-30 16:00:00,
2013-03-30 10:43:00,23.0,17.0,-100.00,NW,308,12.0,23.0,77,-99.99,,,-99.99,,2013-03-30 16:43:00,
2013-03-30 10:52:00,23.0,17.0,-100.00,NW,308,12.0,23.0,77,-99.99,,,-99.99,,2013-03-30 16:52:00,
2013-03-30 11:00:00,25.0,16.0,-100.00,NW,304,10.0,26.0,69,-99.99,,,-99.99,,2013-03-30 17:00:00,
2013-03-30 11:43:00,25.0,16.0,-100.00,NW,304,10.0,26.0,69,-99.99,,,-99.99,,2013-03-30 17:43:00,
2013-03-30 11:52:00,25.0,16.0,-100.00,NW,304,10.0,26.0,69,-99.99,,,-99.99,,2013-03-30 17:52:00,
2013-03-30 12:00:00,26.0,14.0,-100.00,NW,311,11.0,30.0,60,-99.99,,,-99.99,,2013-03-30 18:00:00,
2013-03-30 12:42:00,26.0,14.0,-100.00,NW,311,11.0,30.0,60,-99.99,,,-99.99,,2013-03-30 18:42:00,
2013-03-30 12:53:00,26.0,14.0,-100.00,NW,311,11.0,30.0,60,-99.99,,,-99.99,,2013-03-30 18:53:00,
2013-03-30 13:00:00,26.0,15.0,-100.00,NW,315,11.0,25.0,62,-99.99,,,-99.99,,2013-03-30 19:00:00,
2013-03-30 13:42:00,26.0,15.0,-100.00,NW,315,11.0,25.0,62,-99.99,,,-99.99,,2013-03-30 19:42:00,
2013-03-30 13:53:00,26.0,15.0,-100.00,NW,315,11.0,25.0,62,-99.99,,,-99.99,,2013-03-30 19:53:00,
2013-03-30 14:00:00,26.0,16.0,-100.00,WNW,302,11.0,23.0,64,-99.99,,,-99.99,,2013-03-30 20:00:00,
2013-03-30 14:43:00,26.0,16.0,-100.00,WNW,302,11.0,23.0,64,-99.99,,,-99.99,,2013-03-30 20:43:00,
2013-03-30 14:53:00,26.0,16.0,-100.00,WNW,302,11.0,23.0,64,-99.99,,,-99.99,,2013-03-30 20:53:00,
2013-03-30 15:00:00,27.0,14.0,-100.00,NW,313,13.0,25.0,56,-99.99,,,-99.99,,2013-03-30 21:00:00,
2013-03-30 15:43:00,27.0,14.0,-100.00,NW,313,13.0,25.0,56,-99.99,,,-99.99,,2013-03-30 21:43:00,
2013-03-30 15:53:00,27.0,14.0,-100.00,NW,313,13.0,25.0,56,-99.99,,,-99.99,,2013-03-30 21:53:00,
2013-03-30 16:00:00,27.0,13.0,-100.00,NW,311,15.0,32.0,56,-99.99,,,-99.99,,2013-03-30 22:00:00,
2013-03-30 16:43:00,27.0,13.0,-100.00,NW,311,15.0,32.0,56,-99.99,,,-99.99,,2013-03-30 22:43:00,
2013-03-30 16:53:00,27.0,13.0,-100.00,NW,311,15.0,32.0,56,-99.99,,,-99.99,,2013-03-30 22:53:00,
2013-03-30 17:00:00,26.0,16.0,-100.00,NW,317,16.0,35.0,66,-99.99,,,-99.99,,2013-03-30 23:00:00,
2013-03-30 17:43:00,26.0,16.0,-100.00,NW,317,16.0,35.0,66,-99.99,,,-99.99,,2013-03-30 23:43:00,
2013-03-30 17:53:00,26.0,16.0,-100.00,NW,317,16.0,35.0,66,-99.99,,,-99.99,,2013-03-30 23:53:00,
2013-03-30 18:00:00,24.0,19.0,-100.00,NW,309,17.0,35.0,81,-99.99,,,-99.99,,2013-03-31 00:00:00,
2013-03-30 18:43:00,24.0,19.0,-100.00,NW,309,17.0,35.0,81,-99.99,,,-99.99,,2013-03-31 00:43:00,
2013-03-30 18:52:00,24.0,19.0,-100.00,NW,309,17.0,35.0,81,-99.99,,,-99.99,,2013-03-31 00:52:00,
2013-03-30 19:00:00,24.0,19.0,-100.00,NW,322,6.0,17.0,80,-99.99,,,-99.99,,2013-03-31 01:00:00,
2013-03-30 19:43:00,24.0,19.0,-100.00,NW,322,6.0,17.0,80,-99.99,,,-99.99,,2013-03-31 01:43:00,
2013-03-30 19:53:00,24.0,19.0,-100.00,NW,322,6.0,17.0,80,-99.99,,,-99.99,,2013-03-31 01:53:00,
2013-03-30 20:00:00,23.0,18.0,-100.00,NW,320,7.0,17.0,80,-99.99,,,-99.99,,2013-03-31 02:00:00,
2013-03-30 20:43:00,23.0,18.0,-100.00,NW,320,7.0,17.0,80,-99.99,,,-99.99,,2013-03-31 02:43:00,
2013-03-30 20:52:00,23.0,18.0,-100.00,NW,320,7.0,17.0,80,-99.99,,,-99.99,,2013-03-31 02:52:00,
2013-03-30 21:00:00,23.0,-99.9,-100.00,NNW,344,14.0,26.0,81,-99.99,,,-99.99,,2013-03-31 03:00:00,
2013-03-30 21:44:00,23.0,18.0,-100.00,NNW,344,14.0,26.0,81,-99.99,,,-99.99,,2013-03-31 03:44:00,
2013-03-30 21:54:00,23.0,18.0,-100.00,NNW,344,14.0,26.0,81,-99.99,,,-99.99,,2013-03-31 03:54:00,
2013-03-30 22:00:00,22.0,19.0,-100.00,North,358,8.0,21.0,88,-99.99,,,-99.99,,2013-03-31 04:00:00,
2013-03-30 22:42:00,22.0,19.0,-100.00,North,358,8.0,21.0,88,-99.99,,,-99.99,,2013-03-31 04:42:00,
2013-03-30 22:52:00,22.0,19.0,-100.00,North,358,8.0,21.0,88,-99.99,,,-99.99,,2013-03-31 04:52:00,
2013-03-30 23:00:00,21.0,19.0,-100.00,NNW,333,8.0,18.0,89,-99.99,,,-99.99,,2013-03-31 05:00:00,
2013-03-30 23:42:00,21.0,19.0,-100.00,NNW,333,8.0,18.0,89,-99.99,,,-99.99,,2013-03-31 05:42:00,
2013-03-30 23:53:00,21.0,19.0,-100.00,NNW,333,8.0,18.0,89,-99.99,,,-99.99,,2013-03-31 05:53:00,